Weather History for Rochester, NY

Change the Weather History Date:

Thursday, April 3, 2014

  Actual Average Record
Temperature  
Mean Temperature 33 °F 41 °F  
Max Temperature 41 °F 50 °F 87 °F (2010)
Min Temperature 25 °F 32 °F 13 °F (1954)
Degree Days  
Heating Degree Days 32 24  
Month to date heating degree days 80 73  
Since 1 July heating degree days 6313 5811  
Cooling Degree Days 0 0  
Month to date cooling degree days 0 0  
Year to date cooling degree days 0 0  
Moisture  
Dew Point 25 °F    
Average Humidity 74    
Maximum Humidity 92    
Minimum Humidity 56    
Precipitation  
Precipitation T in 0.10 in 1.41 in (1903)
Month to date precipitation T 0.28  
Year to date precipitation 5.98 7.14  
Snow  
Snow T in 0.20 in 8.80 in (1901)
Month to date snowfall T 0.7  
Since 1 July snowfall 112.4 95.9  
Snow Depth T in    
Sea Level Pressure  
Sea Level Pressure 30.20 in    
Wind  
Wind Speed 6 mph (NE)    
Max Wind Speed 15 mph    
Max Gust Speed 20 mph    
Visibility 10 miles    
Events      
T = Trace of Precipitation, MM = Missing Value Source: NWS Daily Summary

Daily Weather History Graph

Daily Weather History Graph

Search for Another Location

Airport:

Trip Planner

Search our weather history database for the weather conditions in past years. The results will help you decide how hot, cold, wet, or windy it might be!

Date:

Astronomy

Apr. 03, 2014 Rise Set
Actual Time 6:49 AM EDT 7:39 PM EDT
Civil Twilight 6:20 AM EDT 8:08 PM EDT
Nautical Twilight 5:46 AM EDT 8:42 PM EDT
Astronomical Twilight 5:10 AM EDT 9:18 PM EDT
Moon 9:11 AM EDT (4/3) No Moon Set
Length of Visible Light 13h 47m
Length of Day
12h 50m
Waxing Crescent, 17% of the Moon is Illuminated
Apr 3
Waxing Crescent
Apr 7
First Quarter
Apr 15
Full
Apr 22
Last Quarter
Apr 29
New

Hourly Weather History & Observations

Time (EDT) Temp. Windchill Dew Point Humidity Pressure Visibility Wind Dir Wind Speed Gust Speed Precip Events Conditions
12:54 AM 34.0 °F 28.8 °F 27.0 °F 75% 30.24 in 10.0 mi NW 5.8 mph - N/A   Clear
1:54 AM 34.0 °F 31.0 °F 26.1 °F 73% 30.24 in 10.0 mi NNW 3.5 mph - N/A   Clear
2:54 AM 33.1 °F - 25.0 °F 72% 30.24 in 10.0 mi Calm Calm - N/A   Clear
3:54 AM 28.9 °F - 24.1 °F 82% 30.23 in 10.0 mi Calm Calm - N/A   Clear
4:54 AM 27.0 °F - 24.1 °F 89% 30.24 in 9.0 mi Calm Calm - N/A   Clear
5:54 AM 26.1 °F - 23.0 °F 88% 30.24 in 9.0 mi Calm Calm - N/A   Clear
6:54 AM 26.1 °F - 23.0 °F 88% 30.25 in 7.0 mi Calm Calm - N/A   Partly Cloudy
7:54 AM 28.0 °F - 26.1 °F 92% 30.26 in 7.0 mi Calm Calm - N/A   Scattered Clouds
8:54 AM 34.0 °F - 25.0 °F 70% 30.26 in 10.0 mi Calm Calm - N/A   Scattered Clouds
9:54 AM 37.0 °F 32.4 °F 25.0 °F 62% 30.25 in 10.0 mi NE 5.8 mph - N/A   Mostly Cloudy
10:54 AM 37.0 °F - 25.0 °F 62% 30.26 in 10.0 mi Calm Calm - N/A   Mostly Cloudy
11:54 AM 39.0 °F 35.7 °F 27.0 °F 62% 30.23 in 10.0 mi NNE 4.6 mph - N/A   Overcast
12:54 PM 39.0 °F 34.0 °F 27.0 °F 62% 30.22 in 10.0 mi NNE 6.9 mph - N/A   Overcast
1:54 PM 39.9 °F 35.1 °F 28.0 °F 63% 30.20 in 10.0 mi NE 6.9 mph - N/A   Overcast
2:54 PM 39.9 °F 34.5 °F 27.0 °F 60% 30.18 in 10.0 mi NE 8.1 mph - N/A   Overcast
3:54 PM 39.9 °F 33.4 °F 28.0 °F 63% 30.14 in 10.0 mi NE 10.4 mph - N/A   Overcast
4:54 PM 39.0 °F 33.4 °F 27.0 °F 62% 30.13 in 10.0 mi ENE 8.1 mph - N/A   Overcast
5:54 PM 37.0 °F 29.8 °F 24.1 °F 59% 30.12 in 10.0 mi ENE 10.4 mph - N/A   Overcast
6:54 PM 36.0 °F 26.7 °F 21.9 °F 57% 30.11 in 10.0 mi ENE 15.0 mph - N/A   Overcast
7:54 PM 35.1 °F 28.6 °F 23.0 °F 61% 30.11 in 10.0 mi ENE 8.1 mph - N/A   Mostly Cloudy
8:54 PM 34.0 °F 26.0 °F 21.9 °F 61% 30.13 in 10.0 mi ENE 10.4 mph - N/A   Mostly Cloudy
9:54 PM 34.0 °F 25.5 °F 21.9 °F 61% 30.10 in 10.0 mi East 11.5 mph - N/A   Mostly Cloudy
11:54 PM 36.0 °F 29.0 °F 23.0 °F 59% 30.09 in 10.0 mi ENE 9.2 mph - N/A   Overcast